Regional Weather Roundup
Issued by NWS

Home | Current Version | Previous Version | Text Only | Print | Product List | Glossary On
Versions: 1 2 3 4 5 6 7 8 9 10 11 12 13 14 15 16 17 18 19 20 21 22 23 24 25 26 27 28 29 30 31 32 33 34 35 36 37 38 39 40 41 42 43 44 45 46 47 48 49 50
000
ASUS43 KTOP 260359
RWRKS

WEATHER ROUNDUP FOR KANSAS
NATIONAL WEATHER SERVICE GOODLAND KS
1000 PM CST THU DEC 25 2014

NOTE:  "FAIR" INDICATES FEW OR NO CLOUDS BELOW 12,000 FEET WITH NO
SIGNIFICANT WEATHER AND/OR OBSTRUCTIONS TO VISIBILITY.

KSZ001>006-013>018-027>032-041>047-260500-
NORTHWEST KANSAS

CITY           SKY/WX    TMP DP  RH WIND       PRES   REMARKS
GOODLAND       CLOUDY    29  26  89 N16       29.75R WCI  17
HAYS           CLEAR     36  19  51 NW12      29.68R WCI  27
HILL CITY      CLEAR     30  25  81 N21       29.72R WCI  17
RUSSELL        CLEAR     37  26  64 NW13      29.65R WCI  29
$$

KSZ061>065-074>080-084>089-260500-
SOUTHWEST KANSAS

CITY           SKY/WX    TMP DP  RH WIND       PRES   REMARKS
DODGE CITY     MOCLDY    44  21  40 NW18      29.68R
ELKHART          N/A     41  14  33 SW12        N/A
GARDEN CITY    PTCLDY    29  23  78 N13       29.70R WCI  19
GREAT BEND     PTCLDY    39  25  56 W8        29.68R
LIBERAL        PTCLDY    39  18  41 SW10      29.66S WCI  32
$$

KSZ066>073-081>083-090>101-260500-
SOUTHEAST KANSAS

CITY           SKY/WX    TMP DP  RH WIND       PRES   REMARKS
CHANUTE        MOCLDY    50  31  48 S20G25    29.82R
COFFEYVILLE    MOCLDY    51  30  44 S20G26    29.85R
HUTCHINSON     CLOUDY    50  28  42 S20G28    29.68R
NEWTON         MOCLDY    48  27  43 S25G36    29.70S
PARSONS        MOCLDY    50  31  48 S13G23    29.85R
WICHITA INTL   CLOUDY    49  28  44 S17       29.72F
WICHITA JABRA  CLOUDY    49  28  44 S24G31    29.71F
WINFIELD       MOCLDY    51  30  44 S22       29.78R
$$

KSZ007>012-019>026-033>040-048>060-102>105-260500-
NORTHEAST KANSAS

CITY           SKY/WX    TMP DP  RH WIND       PRES   REMARKS
CONCORDIA      PTCLDY    40  30  67 S8        29.66R
EMPORIA        FAIR      48  29  47 S18G26    29.73R
LAWRENCE       MOCLDY    49  30  48 S14G26    29.76R
MANHATTAN      PTCLDY    47  30  51 S9        29.70R
OLATHE IND     CLOUDY    48  31  51 S17G25    29.79R
OLATHE EXE     CLOUDY    49  30  48 S13G22    29.79R
SALINA         CLOUDY    49  30  48 S16       29.67R
TOPEKA BILLARD PTCLDY    49  30  48 S9        29.75R
TOPEKA FORBES  MOCLDY    50  30  46 S16G25    29.73R
$$


USA.gov is the U.S. government's official web portal to all federal, state and local government web resources and services.